COSMOS 1275 DEB, 12707

Orbit data source: Space-Track

COSMOS 1275 DEB, 12707 is space debris in LEO originally from a launch on Thu, 04 Jun 1981 UTC launched from the Plesetsk Missile And Space Complex (PKMTR). Debris objects in space refer to the collection of defunct objects orbiting the Earth. Examples of debris include non-operational satellites, rocket bodies, and fragments generated from explosions, collisions, or faulty payload assembly.

Loading next visibility...
Identifier
12707, 1981-053BB
Orbit
LEO
Country
Flag of CISCIS
Related business
Manufacturer
Unknown
Mission
Spacecraft
Bus & Motor
Unknown
Mass
Unknown
Launch date (UTC)
1981-06-04 (45 years ago)
Launch vehicle
Unknown
Launch site
Plesetsk Missile And Space Complex (PKMTR)
Object type
Payload
Rocket body
Debris
Shape & HBR
Unknown shape, 0.1 m
Radar Cross Section
Small (<0.1 m²)

Expand to show TLE details & history
Last TLE update: 6 hours ago

TLE from 6 hours ago
0 COSMOS 1275 DEB
1 12707U 81053BB  26119.57645802  .00000299  00000-0  36380-3 0  9993
2 12707  83.0116  65.0540 0128359 263.8592 276.8210 13.59771186212325
Epoch: 2026-04-29T13:50Z
TLE epoch observation values (Epoch: 2026-04-29T13:50:05.972Z)
Latitude
0.66711°
Longitude
179.91233°
Altitude
1,029.221 km
Speed
7.342 km/s
True Right ascension
16h 19m 53s
True Declination
0° 39' 48"
Sunlit
Object was in full shadow at epoch
Visualization orbit readout
Latitude
Unknown
Longitude
Unknown
Altitude
Unknown
Speed
Unknown
Apparent Right ascension
Unknown
Apparent Declination
Unknown
Sunlit
N/A
Visualization observer readout
Local Sidereal Time
03:31:36
Azimuth
Unknown
Elevation
Unknown
Doppler factor
Unknown
Orbital elements
Apogee altitude
1,128.828 km
Perigee altitude
938.553 km
Semi-major axis
7,411.827 km
Eccentricity
0.01284
Inclination
83.0116°
RAAN
65.054°
Arg. of periapsis
263.8592°
True anomaly
275.3579°
Mean anomaly
276.821°
Eccentric anomaly
276.08971°
Mean motion
3.40138 °/min
Orbital period
105.84 mins
BSTAR
0.0003638
Loading maneuver chart data...
Computing Atmospheric mass density...
Loading historical data...
Loading historical data...
Loading historical data...
Loading historical data...
Loading historical data...
Loading historical data...
Loading historical data...

Documentation

Showing up to 5 results
|